N4PWG Weather Reports


time (UTC)temp
F
wind
direction
speed
knots
gust
knots
rain 1hr
in
rain 24hr
in
rain mn
in
humidity
%
barometer
mb
20260504175959 81 359 2.6 5.2 0.00 0.00 0.00 45 1027.8
20260504175455 81 338 1.7 2.6 0.00 0.00 0.00 44 1027.7
20260504174953 81 267 2.6 2.6 0.00 0.00 0.00 45 1027.9
20260504174450 81 20 2.6 2.6 0.00 0.00 0.00 43 1027.9
20260504173947 82 357 2.6 4.3 0.00 0.00 0.00 44 1027.8
20260504173438 81 169 1.7 2.6 0.00 0.00 0.00 45 1027.8
20260504172936 81 273 1.7 1.7 0.00 0.00 0.00 45 1028.1
20260504172432 81 313 4.3 7.8 0.00 0.00 0.00 43 1028.1
20260504171929 81 309 0.9 1.7 0.00 0.00 0.00 46 1028.0
20260504171426 81 277 0.9 0.9 0.00 0.00 0.00 46 1028.0
20260504170923 80 278 2.6 4.3 0.00 0.00 0.00 47 1028.2
20260504170419 81 315 1.7 2.6 0.00 0.00 0.00 45 1028.3
20260504160442 80 328 4.3 7.0 0.00 0.00 0.00 48 1029.0
20260504150906 77 287 1.7 1.7 0.00 0.00 0.00 55 1029.5
20260504150402 76 303 0.9 0.9 0.00 0.00 0.00 56 1029.6
20260504141332 72 213 1.7 1.7 0.00 0.00 0.00 64 1029.6
20260504140829 71 350 0.0 0.9 0.00 0.00 0.00 67 1029.7
20260504140325 70 321 1.7 1.7 0.00 0.00 0.00 67 1029.6
20260504130754 64 0 0.0 0.0 0.00 0.00 0.00 76 1029.6
20260504130249 63 307 0.0 0.9 0.00 0.00 0.00 78 1029.8
20260504120213 57 346 0.0 0.0 0.00 0.00 0.00 87 1029.6
20260504100413 56 5 0.0 0.0 0.00 0.00 0.00 80 1029.0
20260504081610 57 9 0.9 0.9 0.00 0.00 0.00 76 1029.3
20260504081106 57 1 0.0 0.0 0.00 0.00 0.00 75 1029.3
20260504080603 57 0 0.9 0.9 0.00 0.00 0.00 75 1029.5
20260504050415 58 304 0.0 0.0 0.00 0.00 0.00 67 1030.7
20260504045912 59 335 0.0 0.0 0.00 0.00 0.00 66 1030.7
20260504045408 59 278 0.9 0.9 0.00 0.00 0.00 65 1030.8
20260504044904 58 293 0.9 0.9 0.00 0.00 0.00 66 1031.2
20260504044402 57 228 0.9 0.9 0.00 0.00 0.00 67 1031.1
20260504043859 57 300 1.7 1.7 0.00 0.00 0.00 70 1031.0
20260504043356 57 305 0.0 0.0 0.00 0.00 0.00 69 1031.0
20260504042854 57 329 0.0 0.0 0.00 0.00 0.00 69 1031.0
20260504042349 57 258 0.0 0.0 0.00 0.00 0.00 70 1031.1
20260504041846 57 326 0.0 0.0 0.00 0.00 0.00 69 1031.2
20260504041342 57 347 0.0 0.0 0.00 0.00 0.00 68 1031.1
20260504040838 57 297 0.0 0.0 0.00 0.00 0.00 68 1031.1
20260504040336 58 309 0.0 0.9 0.00 0.00 0.00 68 1031.3
20260504035832 58 342 0.0 0.0 0.00 0.00 0.00 68 1031.3
20260504035330 58 346 0.0 0.0 0.00 0.00 0.00 68 1031.3
20260504034827 59 56 0.0 0.0 0.00 0.00 0.00 67 1031.3
20260504034324 59 3 0.0 0.9 0.00 0.00 0.00 63 1031.5
20260504033821 59 307 0.0 0.9 0.00 0.00 0.00 64 1031.2
20260504033319 59 309 0.0 0.0 0.00 0.00 0.00 64 1031.2
20260504032815 59 351 0.0 0.0 0.00 0.00 0.00 64 1031.1
20260504032313 59 327 0.0 0.0 0.00 0.00 0.00 64 1031.3
20260504031809 59 357 0.0 0.0 0.00 0.00 0.00 65 1031.3
20260504031307 59 343 0.0 0.0 0.00 0.00 0.00 66 1031.5
20260504030803 60 319 0.0 0.0 0.00 0.00 0.00 64 1031.4
20260504030300 60 336 0.0 0.0 0.00 0.00 0.00 63 1031.4
20260504025756 59 334 0.0 0.0 0.00 0.00 0.00 64 1031.6
20260504025253 59 327 0.0 0.0 0.00 0.00 0.00 63 1031.6
20260504024750 59 328 0.0 0.0 0.00 0.00 0.00 64 1031.2
20260504024246 59 345 0.0 0.0 0.00 0.00 0.00 65 1031.3
20260504023744 60 339 0.0 0.0 0.00 0.00 0.00 64 1031.4
20260504023240 60 345 0.0 0.0 0.00 0.00 0.00 63 1031.4
20260504022736 60 352 0.0 0.0 0.00 0.00 0.00 64 1031.6
20260504022232 60 347 0.0 0.0 0.00 0.00 0.00 64 1031.2
20260504021729 60 346 0.0 0.0 0.00 0.00 0.00 62 1031.2
20260504021226 61 348 0.0 0.0 0.00 0.00 0.00 61 1031.3
20260504020723 61 337 0.0 0.9 0.00 0.00 0.00 60 1031.0
20260504020220 61 0 0.0 0.0 0.00 0.00 0.00 59 1031.2
20260504015716 62 348 0.0 0.0 0.00 0.00 0.00 58 1031.1
20260504015213 62 348 0.0 0.9 0.00 0.00 0.00 57 1031.0
20260504014708 61 356 0.0 0.0 0.00 0.00 0.00 57 1031.1
20260504014205 61 13 0.0 0.0 0.00 0.00 0.00 59 1031.1
20260504013703 62 5 0.0 0.0 0.00 0.00 0.00 57 1031.2
20260504013200 62 9 0.0 0.0 0.00 0.00 0.00 56 1031.1
20260504012657 62 18 0.0 0.0 0.00 0.00 0.00 56 1031.2
20260504012155 62 11 0.0 0.0 0.00 0.00 0.00 55 1030.8
20260504011651 63 11 0.0 0.0 0.00 0.00 0.00 54 1031.0
20260504011148 64 26 0.0 0.0 0.00 0.00 0.00 53 1030.9
20260504010644 64 12 0.0 0.0 0.00 0.00 0.00 52 1030.8
20260504010140 65 21 0.0 0.0 0.00 0.00 0.00 53 1030.9
20260504005637 66 24 0.0 0.0 0.00 0.00 0.00 49 1031.1
20260504005133 66 25 0.0 0.0 0.00 0.00 0.00 48 1031.1
20260504004632 66 335 0.0 0.0 0.00 0.00 0.00 48 1031.1
20260504004129 67 6 0.0 0.0 0.00 0.00 0.00 47 1030.8
20260504003625 68 35 0.0 0.0 0.00 0.00 0.00 47 1030.8
20260504003121 69 355 0.0 0.0 0.00 0.00 0.00 45 1031.0
20260504002618 70 359 0.9 0.9 0.00 0.00 0.00 44 1030.9
20260504002116 71 30 0.9 0.9 0.00 0.00 0.00 44 1031.1
20260504001614 71 3 0.0 0.0 0.00 0.00 0.00 43 1031.2
20260504001109 72 28 0.0 0.9 0.00 0.00 0.00 43 1031.4
20260504000607 72 26 0.9 0.9 0.00 0.00 0.00 43 1031.3
20260504000104 72 312 0.0 0.9 0.00 0.00 0.00 41 1031.2
20260503235602 73 303 0.9 1.7 0.00 0.00 0.00 40 1031.2
20260503235059 73 196 0.9 2.6 0.00 0.00 0.00 41 1031.4
20260503234556 74 344 0.0 0.9 0.00 0.00 0.00 40 1031.5
20260503234054 74 228 0.0 0.9 0.00 0.00 0.00 40 1031.4
20260503233551 74 12 0.0 0.0 0.00 0.00 0.00 41 1031.5
20260503233047 73 41 0.9 0.9 0.00 0.00 0.00 39 1031.6
20260503232544 74 337 2.6 2.6 0.00 0.00 0.00 39 1031.3
20260503232041 74 26 0.9 1.7 0.00 0.00 0.00 37 1031.8
20260503231539 74 27 0.0 0.9 0.00 0.00 0.00 37 1031.6
20260503231035 74 0 0.9 1.7 0.00 0.00 0.00 37 1031.6
20260503230532 75 22 0.0 0.9 0.00 0.00 0.00 38 1031.8
20260503230030 75 305 1.7 1.7 0.00 0.00 0.00 37 1032.1
20260503225526 75 36 1.7 1.7 0.00 0.00 0.00 37 1032.0
20260503225021 75 358 0.9 0.9 0.00 0.00 0.00 38 1032.0
20260503224519 75 21 0.9 0.9 0.00 0.00 0.00 38 1032.2
20260503224017 75 2 0.9 1.7 0.00 0.00 0.00 37 1032.0
20260503223515 75 269 1.7 4.3 0.00 0.00 0.00 37 1032.3
20260503223010 75 84 1.7 2.6 0.00 0.00 0.00 36 1032.2
20260503222508 75 40 0.9 1.7 0.00 0.00 0.00 37 1032.2
20260503222006 74 34 0.0 0.9 0.00 0.00 0.00 38 1032.0
20260503221504 75 242 0.9 1.7 0.00 0.00 0.00 35 1032.3
20260503221001 75 357 0.9 1.7 0.00 0.00 0.00 36 1032.3
20260503220457 74 13 0.9 1.7 0.00 0.00 0.00 37 1032.2
20260503215954 75 269 0.9 1.7 0.00 0.00 0.00 37 1032.3
20260503215451 75 75 1.7 1.7 0.00 0.00 0.00 37 1032.4
20260503214949 76 334 1.7 1.7 0.00 0.00 0.00 36 1032.5
20260503214447 76 26 0.9 0.9 0.00 0.00 0.00 36 1032.6
20260503213943 76 313 0.9 0.9 0.00 0.00 0.00 37 1032.4
20260503213442 75 351 0.9 0.9 0.00 0.00 0.00 38 1032.7
20260503212937 75 325 1.7 2.6 0.00 0.00 0.00 37 1032.9
20260503212435 75 352 2.6 4.3 0.00 0.00 0.00 37 1032.7
20260503211932 75 338 2.6 2.6 0.00 0.00 0.00 37 1033.1
20260503211429 75 10 0.0 0.9 0.00 0.00 0.00 40 1033.3
20260503210925 74 321 0.9 1.7 0.00 0.00 0.00 40 1033.3
20260503210422 74 65 0.9 0.9 0.00 0.00 0.00 39 1033.3
20260503205916 73 26 0.9 1.7 0.00 0.00 0.00 39 1033.3
20260503205414 75 23 3.5 5.2 0.00 0.00 0.00 37 1033.4
20260503204910 74 329 4.3 5.2 0.00 0.00 0.00 39 1033.7
20260503204407 74 133 1.7 1.7 0.00 0.00 0.00 39 1033.6
20260503203904 74 14 0.0 0.9 0.00 0.00 0.00 38 1034.0
20260503203401 74 2 1.7 1.7 0.00 0.00 0.00 39 1034.0
20260503202858 74 285 0.0 0.9 0.00 0.00 0.00 38 1034.1
20260503202356 75 59 0.9 0.9 0.00 0.00 0.00 40 1034.2
20260503201855 74 269 0.0 0.9 0.00 0.00 0.00 40 1034.1
20260503201351 74 263 0.9 0.9 0.00 0.00 0.00 40 1034.3
20260503200849 74 67 2.6 4.3 0.00 0.00 0.00 39 1034.7
20260503200344 74 12 0.0 0.9 0.00 0.00 0.00 37 1034.9
20260503195842 74 317 1.7 1.7 0.00 0.00 0.00 38 1034.9
20260503195338 73 250 1.7 1.7 0.00 0.00 0.00 39 1035.1
20260503194836 74 90 1.7 1.7 0.00 0.00 0.00 40 1035.2
20260503194331 74 280 0.9 1.7 0.00 0.00 0.00 39 1035.6
20260503193828 74 353 0.9 0.9 0.00 0.00 0.00 40 1035.3
20260503193324 73 18 0.0 0.0 0.00 0.00 0.00 40 1035.6
20260503192820 73 229 5.2 8.7 0.00 0.00 0.00 38 1035.6
20260503192315 73 317 2.6 4.3 0.00 0.00 0.00 40 1035.8
20260503191812 73 334 0.0 0.9 0.00 0.00 0.00 38 1036.0
20260503191309 73 359 2.6 4.3 0.00 0.00 0.00 40 1036.0
20260503190806 73 270 1.7 1.7 0.00 0.00 0.00 41 1036.0
20260503190303 73 322 0.9 1.7 0.00 0.00 0.00 39 1036.1
20260503185800 73 315 0.9 1.7 0.00 0.00 0.00 40 1036.2
20260503185255 73 31 0.9 0.9 0.00 0.00 0.00 40 1035.9
20260503184755 72 7 0.9 0.9 0.00 0.00 0.00 39 1036.4
20260503184252 71 326 3.5 5.2 0.00 0.00 0.00 43 1036.3
20260503183748 71 196 0.0 0.9 0.00 0.00 0.00 43 1036.4
20260503183246 71 64 0.9 1.7 0.00 0.00 0.00 40 1036.6
20260503182743 71 213 0.9 0.9 0.00 0.00 0.00 43 1036.7
20260503182242 71 351 2.6 2.6 0.00 0.00 0.00 43 1036.8
20260503181738 71 317 0.9 0.9 0.00 0.00 0.00 43 1036.5
20260503181235 71 345 0.0 0.9 0.00 0.00 0.00 44 1037.0
20260503180732 71 339 0.0 0.0 0.00 0.00 0.00 47 1037.1